Location: eljas
(40.1958°N, 6.8661°W)
Time: 05:35:44
(UTC+01:00)

Amateur Radio Satellites - All Passes

Search period start: 25 February 2017 05:05
Search period end: 26 February 2017 05:05
Location: eljas, 40.1958°N, 6.8661°W

Satellite Date Start Highest point End Downlink Frequencies (MHz)
Time Altitude Azimuth
CUBESAT XI-V 25 Feb 05:16:04 05:20:41 64° 75° (ENE) 05:25:18 437.345
ITAMSAT 1 25 Feb 05:20:00 05:25:05 52° 289° (WNW) 05:30:07 435.822/435.867
RS-15 25 Feb 05:26:48 05:37:47 42° 253° (WSW) 05:48:22 29.354- 29.394
STARS 25 Feb 05:30:27 05:34:47 71° 75° (ENE) 05:39:10 437.465
AO-85 25 Feb 05:42:54 05:47:30 78° 120° (ESE) 05:51:46 145.980
AO-7 25 Feb 05:55:06 06:03:17 63° 293° (WNW) 06:11:24 .
M-CUBED/EXP-1 PRIME 25 Feb 06:11:36 06:14:41 36° 256° (WSW) 06:17:44 437.505
CUTE-I 25 Feb 06:25:52 06:27:47 12° 89° (E) 06:29:42 437.470
KKS-1 25 Feb 06:34:45 06:35:54 11° 270° (W) 06:37:04 437.445
SO-50 25 Feb 06:53:30 06:55:27 12° 38° (NE) 06:57:23 436.795
CUBESAT XI-V 25 Feb 06:56:37 06:58:28 12° 270° (W) 07:00:19 437.345
STRAND 1 25 Feb 07:04:33 07:08:45 26° 66° (ENE) 07:12:58 437.568
KAITUO 1B 25 Feb 07:05:14 07:08:15 22° 95° (E) 07:11:14 145.475/437.950
XW-2F 25 Feb 07:08:44 07:12:07 30° 96° (E) 07:15:28 145.980 - 146.000
DOVE 4 25 Feb 07:11:18 07:15:48 43° 98° (E) 07:20:33 437.250
XW-2D 25 Feb 07:12:54 07:16:27 36° 98° (E) 07:19:58 145.860 - 145.880
BEESAT 3 25 Feb 07:14:11 07:17:47 38° 116° (ESE) 07:21:29 437.485
XW-2B 25 Feb 07:17:52 07:21:30 40° 98° (E) 07:25:05 145.730 - 145.750
AO-85 25 Feb 07:26:05 07:28:20 14° 317° (NW) 07:30:32 145.980
XW-2C 25 Feb 07:26:24 07:30:10 53° 100° (E) 07:33:52 145.795 - 145.815
NUDT-PHONESAT 25 Feb 07:40:18 07:44:03 65° 101° (E) 07:47:45 437.300
LilacSat-2 25 Feb 07:42:36 07:46:28 89° 282° (WNW) 07:50:16 437.200
AO-7 25 Feb 07:50:28 07:54:25 14° 314° (NW) 07:58:22 .
BEESAT 2 25 Feb 07:51:09 07:54:50 40° 116° (ESE) 07:58:35 435.950
CUTE 1.7 + AOD 2 25 Feb 08:00:09 08:02:20 14° 91° (E) 08:04:30 437.475
CUTE-I 25 Feb 08:03:01 08:08:26 82° 287° (WNW) 08:13:48 437.470
Tancredo 1 25 Feb 08:12:58 08:14:44 14° 130° (SE) 08:16:29 437.200
SO-50 25 Feb 08:32:08 08:36:39 82° 60° (ENE) 08:41:06 436.795
KAITUO 1B 25 Feb 08:39:12 08:42:11 23° 291° (WNW) 08:45:09 145.475/437.950
STRAND 1 25 Feb 08:42:58 08:47:43 37° 262° (W) 08:52:30 437.568
XW-2F 25 Feb 08:43:26 08:46:03 18° 292° (WNW) 08:48:38 145.980 - 146.000
XW-2D 25 Feb 08:48:03 08:50:20 15° 293° (WNW) 08:52:36 145.860 - 145.880
AAUSAT CUBESAT 2 25 Feb 08:48:55 08:51:22 15° 92° (E) 08:53:48 437.432
DOVE 4 25 Feb 08:49:46 08:53:14 21° 293° (WNW) 08:56:50 437.250
UWE-3 25 Feb 08:51:02 08:53:51 16° 91° (E) 08:56:38 435.000/436.395/437.385
BEESAT 3 25 Feb 08:52:38 08:55:33 20° 314° (NW) 08:58:30 437.485
XW-2B 25 Feb 08:53:19 08:55:20 14° 294° (WNW) 08:57:21 145.730 - 145.750
SEEDS 25 Feb 08:56:59 09:00:56 40° 98° (E) 09:04:50 437.485
HO-68 25 Feb 08:59:28 09:06:35 63° 103° (ESE) 09:13:38 435.675
XW-2A 25 Feb 09:01:17 09:04:44 62° 284° (WNW) 09:08:08 145.665 - 145.685
XW-2C 25 Feb 09:02:46 09:03:52 11° 296° (WNW) 09:04:59 145.795 - 145.815
ZACube-1 25 Feb 09:13:14 09:15:59 16° 91° (E) 09:18:41 437.345
O/OREOS (USA 219) 25 Feb 09:18:25 09:22:31 31° 61° (ENE) 09:26:36 437.305
ISS 25 Feb 09:20:32 09:23:49 68° 140° (SE) 09:27:05 437.550
BEESAT 2 25 Feb 09:29:50 09:32:46 20° 314° (NW) 09:35:45 435.950
CUTE 1.7 + AOD 2 25 Feb 09:34:22 09:38:25 47° 287° (WNW) 09:42:26 437.475
CUTE-I 25 Feb 09:46:06 09:47:35 11° 302° (WNW) 09:49:05 437.470
FO-29 25 Feb 09:46:07 09:51:02 20° 56° (NE) 09:56:09 435.910
Tancredo 1 25 Feb 09:47:26 09:50:39 61° 325° (NW) 09:53:53 437.200
CUBEBUG 2 25 Feb 09:47:29 09:52:17 82° 284° (WNW) 09:57:00 437.445
PRISM 25 Feb 09:53:46 09:57:46 57° 74° (ENE) 10:01:46 437.425
UNISAT 6 25 Feb 09:56:23 10:00:04 25° 67° (ENE) 10:03:49 437.425
TIGRISAT 25 Feb 09:56:56 10:00:31 24° 67° (ENE) 10:04:11 435.000
AO-73 25 Feb 10:00:42 10:05:06 46° 98° (E) 10:09:22 145.935
Oscar 11 25 Feb 10:08:02 10:12:13 47° 99° (E) 10:16:22 .
AAUSAT CUBESAT 2 25 Feb 10:23:09 10:27:00 39° 288° (WNW) 10:30:49 437.432
DELFI C3 25 Feb 10:25:00 10:28:01 21° 94° (E) 10:31:02 145.870
UWE-3 25 Feb 10:26:03 10:30:35 50° 287° (WNW) 10:35:01 435.000/436.395/437.385
SEEDS 25 Feb 10:33:38 10:36:17 17° 294° (WNW) 10:38:55 437.485
ZACube-1 25 Feb 10:48:07 10:52:31 48° 287° (WNW) 10:56:49 437.345
HO-68 25 Feb 10:48:08 10:53:45 26° 301° (WNW) 10:59:23 435.675
YUBILEINY 25 Feb 10:54:39 11:02:30 38° 86° (E) 11:10:20 435.215
ISS 25 Feb 10:57:58 11:00:33 21° 338° (NNW) 11:03:08 437.550
O/OREOS (USA 219) 25 Feb 10:58:02 11:01:46 25° 258° (WSW) 11:05:29 437.305
EO-79 25 Feb 11:03:32 11:04:39 11° 62° (ENE) 11:05:46 145.935-145.965
POLYITAN 1 25 Feb 11:19:11 11:21:52 17° 65° (ENE) 11:24:36 437.675
NANOSAT C BR1 25 Feb 11:19:18 11:21:45 15° 65° (ENE) 11:24:12 145.865
QB50P2 25 Feb 11:21:47 11:24:47 19° 66° (ENE) 11:27:48 145.880/145.840
AIST 2D 25 Feb 11:25:24 11:28:23 26° 71° (ENE) 11:31:23 435.315
Tancredo 1 25 Feb 11:25:25 11:27:27 15° 344° (NNW) 11:29:29 437.200
FO-29 25 Feb 11:27:49 11:34:54 89° 273° (W) 11:42:42 435.910
PRISM 25 Feb 11:32:31 11:33:23 11° 269° (W) 11:34:16 437.425
UNISAT 6 25 Feb 11:32:40 11:36:38 30° 264° (W) 11:40:41 437.425
TIGRISAT 25 Feb 11:33:00 11:37:00 32° 264° (W) 11:41:09 435.000
AO-73 25 Feb 11:37:59 11:40:55 17° 295° (WNW) 11:43:50 145.935
Oscar 11 25 Feb 11:45:24 11:47:56 15° 295° (WNW) 11:50:29 .
BUGSAT 1 25 Feb 11:52:22 11:52:51 10° 62° (ENE) 11:53:20 437.445
DELFI C3 25 Feb 11:59:29 12:02:47 26° 290° (WNW) 12:06:04 145.870
ESTCUBE 1 25 Feb 12:03:52 12:07:08 20° 93° (E) 12:10:24 437.505/2401.250
DUCHIFAT 1 25 Feb 12:25:11 12:29:22 75° 75° (ENE) 12:33:36 145.980
VELOX 1 25 Feb 12:31:51 12:33:39 12° 91° (E) 12:35:27 145.980
EO-79 25 Feb 12:35:38 12:39:49 68° 258° (WSW) 12:44:04 145.935-145.965
ISS 25 Feb 12:36:48 12:37:59 11° 358° (N) 12:39:11 437.550
SPROUT 25 Feb 12:42:02 12:44:01 13° 91° (E) 12:45:59 437.525
LO-87 25 Feb 12:47:57 12:51:27 52° 286° (WNW) 12:54:58 145.935 - 145.965
Oscar 19 25 Feb 12:47:59 12:51:08 17° 62° (ENE) 12:54:17 437.125/150
YUBILEINY 25 Feb 12:50:41 12:59:04 47° 285° (WNW) 13:07:29 435.215
NANOSAT C BR1 25 Feb 12:53:00 12:57:03 46° 261° (W) 13:01:09 145.865
POLYITAN 1 25 Feb 12:53:18 12:57:18 42° 261° (W) 13:01:22 437.675
QB50P2 25 Feb 12:56:24 13:00:18 36° 262° (W) 13:04:15 145.880/145.840
AIST 2D 25 Feb 12:59:10 13:01:36 17° 266° (W) 13:04:04 435.315
Tancredo 1 25 Feb 13:03:40 13:04:48 11° 4° (N) 13:05:56 437.200
FO-29 25 Feb 13:16:46 13:20:57 16° 275° (W) 13:25:21 435.910
50 SAT 25 Feb 13:18:09 13:21:02 24° 96° (E) 13:23:53 437.505
BUGSAT 1 25 Feb 13:23:35 13:27:36 68° 259° (W) 13:31:42 437.445
Gurwin Techsat 1B 25 Feb 13:29:40 13:33:45 23° 64° (ENE) 13:37:50 435.225
ESTCUBE 1 25 Feb 13:39:56 13:44:03 37° 289° (WNW) 13:48:09 437.505/2401.250
DX 1 25 Feb 13:58:30 14:02:43 48° 100° (E) 14:06:56 434.975-435.025
VELOX 1 25 Feb 14:06:06 14:10:27 58° 287° (WNW) 14:14:47 145.980
UKube-1 25 Feb 14:11:07 14:15:18 47° 100° (E) 14:19:27 .
ISS 25 Feb 14:13:10 14:15:30 18° 19° (NNE) 14:17:49 437.550
AO-85 25 Feb 14:14:48 14:18:37 50° 55° (NE) 14:22:29 145.980
SPROUT 25 Feb 14:16:02 14:20:14 53° 287° (WNW) 14:24:25 437.525
Oscar 19 25 Feb 14:24:49 14:29:55 63° 259° (WSW) 14:35:02 437.125/150
Tancredo 1 25 Feb 14:39:18 14:42:00 23° 24° (NNE) 14:44:40 437.200
50 SAT 25 Feb 14:51:35 14:53:59 18° 292° (WNW) 14:56:23 437.505
ITAMSAT 1 25 Feb 14:58:51 15:03:14 28° 66° (ENE) 15:07:38 435.822/435.867
AO-7 25 Feb 15:01:26 15:08:56 39° 60° (ENE) 15:16:26 .
Gurwin Techsat 1B 25 Feb 15:08:18 15:13:21 45° 261° (W) 15:18:29 435.225
BEESAT 3 25 Feb 15:31:41 15:34:51 22° 48° (NE) 15:37:59 437.485
DX 1 25 Feb 15:35:55 15:38:30 16° 296° (WNW) 15:41:05 434.975-435.025
ITUPSAT 1 25 Feb 15:45:28 15:49:47 33° 97° (E) 15:54:05 437.325
UKube-1 25 Feb 15:48:21 15:50:55 16° 296° (WNW) 15:53:30 .
ISS 25 Feb 15:49:04 15:52:22 83° 37° (NE) 15:55:38 437.550
BEESAT 25 Feb 15:52:03 15:56:32 39° 98° (E) 16:00:59 436.000
AO-85 25 Feb 15:56:51 15:58:34 13° 250° (WSW) 16:00:19 145.980
BEESAT 2 25 Feb 16:09:30 16:12:46 23° 48° (NE) 16:16:01 435.950
MOZHAYETS 4 25 Feb 16:14:37 16:18:23 24° 95° (E) 16:22:06
Tancredo 1 25 Feb 16:15:18 16:18:26 48° 222° (SW) 16:21:31 437.200
ITAMSAT 1 25 Feb 16:37:49 16:42:33 35° 263° (W) 16:47:19 435.822/435.867
KKS-1 25 Feb 16:47:45 16:49:48 13° 91° (E) 16:51:51 437.445
PCSat 25 Feb 16:53:10 16:58:05 37° 111° (ESE) 17:03:02 145.827
AO-7 25 Feb 16:53:27 17:01:28 49° 259° (WSW) 17:09:31 .
BEESAT 3 25 Feb 17:08:51 17:12:32 35° 245° (WSW) 17:16:11 437.485
CUBESAT XI-V 25 Feb 17:14:19 17:17:13 16° 92° (E) 17:20:05 437.345
STARS 25 Feb 17:21:57 17:24:07 13° 92° (E) 17:26:18 437.465
ITUPSAT 1 25 Feb 17:23:30 17:27:27 26° 293° (WNW) 17:31:23 437.325
BEESAT 25 Feb 17:30:24 17:34:03 22° 295° (WNW) 17:37:40 436.000
RS-15 25 Feb 17:36:17 17:46:49 39° 106° (ESE) 17:57:42 29.354- 29.394
CUTE-I 25 Feb 17:46:14 17:50:04 20° 63° (ENE) 17:53:54 437.470
KAITUO 1B 25 Feb 17:46:46 17:47:50 11° 64° (ENE) 17:48:54 145.475/437.950
BEESAT 2 25 Feb 17:46:56 17:50:37 34° 245° (WSW) 17:54:16 435.950
XW-2F 25 Feb 17:50:12 17:52:22 15° 66° (ENE) 17:54:34 145.980 - 146.000
MOZHAYETS 4 25 Feb 17:51:29 17:55:33 31° 291° (WNW) 17:59:35
M-CUBED/EXP-1 PRIME 25 Feb 17:51:33 17:52:35 11° 98° (E) 17:53:37 437.505
XW-2D 25 Feb 17:54:22 17:56:56 17° 67° (ENE) 17:59:32 145.860 - 145.880
XW-2B 25 Feb 17:59:12 18:01:58 19° 68° (ENE) 18:04:44 145.730 - 145.750
XW-2C 25 Feb 18:07:25 18:10:32 24° 70° (ENE) 18:13:40 145.795 - 145.815
NO-84 25 Feb 18:11:45 18:14:54 70° 136° (SE) 18:18:22 435.350 FM
DOVE 4 25 Feb 18:16:54 18:20:40 35° 71° (ENE) 18:24:28 437.250
NUDT-PHONESAT 25 Feb 18:19:22 18:22:32 26° 70° (ENE) 18:25:44 437.300
KKS-1 25 Feb 18:22:18 18:26:42 57° 287° (WNW) 18:31:05 437.445
LilacSat-2 25 Feb 18:23:39 18:27:17 39° 72° (ENE) 18:30:55 437.200
PCSat 25 Feb 18:36:41 18:41:29 32° 308° (NW) 18:46:21 145.827
CUBESAT XI-V 25 Feb 18:50:25 18:54:49 46° 288° (WNW) 18:59:12 437.345
CUTE 1.7 + AOD 2 25 Feb 18:54:23 18:54:47 10° 62° (ENE) 18:55:10 437.475
STARS 25 Feb 18:56:26 19:00:46 54° 287° (WNW) 19:05:05 437.465
KAITUO 1B 25 Feb 19:17:39 19:21:22 53° 260° (W) 19:25:08 145.475/437.950
XW-2F 25 Feb 19:22:35 19:26:12 38° 262° (W) 19:29:49 145.980 - 146.000
M-CUBED/EXP-1 PRIME 25 Feb 19:23:29 19:27:13 56° 291° (WNW) 19:31:13 437.505
CUTE-I 25 Feb 19:24:29 19:29:40 53° 260° (W) 19:34:55 437.470
HO-68 25 Feb 19:27:21 19:34:03 44° 66° (ENE) 19:40:44 435.675
XW-2D 25 Feb 19:27:25 19:30:53 32° 263° (W) 19:34:23 145.860 - 145.880
XW-2A 25 Feb 19:32:06 19:35:12 34° 73° (ENE) 19:38:20 145.665 - 145.685
XW-2B 25 Feb 19:32:35 19:35:57 29° 264° (W) 19:39:21 145.730 - 145.750
AAUSAT CUBESAT 2 25 Feb 19:40:30 19:41:12 10° 63° (ENE) 19:41:54 437.432
XW-2C 25 Feb 19:41:35 19:44:39 22° 265° (W) 19:47:45 145.795 - 145.815
RS-15 25 Feb 19:46:47 19:58:40 65° 308° (NW) 20:10:59 29.354- 29.394
SEEDS 25 Feb 19:48:09 19:51:41 26° 69° (ENE) 19:55:13 437.485
UWE-3 25 Feb 19:48:29 19:50:21 12° 62° (ENE) 19:52:14 435.000/436.395/437.385
NO-84 25 Feb 19:50:35 19:52:58 18° 335° (NNW) 19:55:31 435.350 FM
NUDT-PHONESAT 25 Feb 19:53:41 19:56:28 19° 266° (W) 19:59:15 437.300
DOVE 4 25 Feb 19:55:47 19:58:31 17° 267° (W) 20:01:16 437.250
LilacSat-2 25 Feb 19:59:38 20:01:43 14° 268° (W) 20:03:49 437.200
ZACube-1 25 Feb 20:09:28 20:11:17 12° 62° (ENE) 20:13:08 437.345
CUTE 1.7 + AOD 2 25 Feb 20:25:42 20:29:59 75° 259° (W) 20:34:16 437.475
CUBEBUG 2 25 Feb 20:44:31 20:48:55 76° 75° (ENE) 20:53:30 437.445
STRAND 1 25 Feb 20:53:28 20:58:39 77° 103° (ESE) 21:03:47 437.568
AO-73 25 Feb 20:55:20 20:59:20 33° 70° (ENE) 21:03:24 145.935
Oscar 11 25 Feb 21:02:05 21:06:01 34° 71° (ENE) 21:09:57 .
YUBILEINY 25 Feb 21:06:11 21:11:36 17° 62° (ENE) 21:16:58 435.215
XW-2A 25 Feb 21:06:52 21:08:07 12° 268° (W) 21:09:23 145.665 - 145.685
DELFI C3 25 Feb 21:11:23 21:13:03 12° 65° (ENE) 21:14:42 145.870
AAUSAT CUBESAT 2 25 Feb 21:11:56 21:16:04 69° 258° (WSW) 21:20:14 437.432
HO-68 25 Feb 21:15:22 21:21:48 35° 263° (W) 21:28:17 435.675
UWE-3 25 Feb 21:21:44 21:26:09 68° 259° (W) 21:30:44 435.000/436.395/437.385
SEEDS 25 Feb 21:23:48 21:27:18 25° 265° (W) 21:30:48 437.485
ZACube-1 25 Feb 21:42:31 21:46:57 68° 259° (W) 21:51:29 437.345
RS-15 25 Feb 22:04:33 22:14:19 26° 338° (NNW) 22:24:13 29.354- 29.394
AO-73 25 Feb 22:32:08 22:35:36 22° 267° (W) 22:39:09 145.935
STRAND 1 25 Feb 22:34:39 22:37:08 14° 300° (WNW) 22:39:37 437.568
Oscar 11 25 Feb 22:38:57 22:42:12 20° 266° (W) 22:45:28 .
FO-29 25 Feb 22:41:03 22:45:12 16° 85° (E) 22:49:08 435.910
DELFI C3 25 Feb 22:43:32 22:47:24 50° 261° (W) 22:51:15 145.870
SO-50 25 Feb 22:45:57 22:50:02 30° 114° (ESE) 22:54:04 436.795
YUBILEINY 25 Feb 23:00:59 23:09:46 86° 83° (E) 23:18:28 435.215
ESTCUBE 1 25 Feb 23:03:12 23:06:16 18° 65° (ENE) 23:09:19 437.505/2401.250
NO-84 25 Feb 23:09:18 23:11:14 13° 19° (NNE) 23:13:12 435.350 FM
PRISM 25 Feb 23:10:34 23:14:39 79° 285° (WNW) 23:18:44 437.425
LO-87 25 Feb 23:23:16 23:26:42 50° 75° (ENE) 23:30:09 145.935 - 145.965
UNISAT 6 25 Feb 23:24:06 23:28:46 59° 100° (E) 23:33:20 437.425
TIGRISAT 25 Feb 23:24:21 23:28:59 55° 100° (E) 23:33:32 435.000
VELOX 1 25 Feb 23:29:40 23:30:53 11° 62° (ENE) 23:32:08 145.980
O/OREOS (USA 219) 25 Feb 23:30:03 23:34:11 39° 105° (ESE) 23:38:22 437.305
DUCHIFAT 1 26 Feb 00:11:36 00:13:24 12° 91° (E) 00:15:12 145.980
EO-79 26 Feb 00:21:32 00:24:41 20° 94° (E) 00:27:50 145.935-145.965
RS-15 26 Feb 00:23:36 00:32:51 23° 14° (NNE) 00:41:58 29.354- 29.394
FO-29 26 Feb 00:23:36 00:31:18 89° 100° (E) 00:38:13 435.910
AIST 2D 26 Feb 00:23:50 00:27:06 33° 97° (E) 00:30:20 435.315
SO-50 26 Feb 00:26:13 00:30:25 32° 310° (NW) 00:34:35 436.795
NANOSAT C BR1 26 Feb 00:37:57 00:41:38 27° 96° (E) 00:45:17 145.865
ESTCUBE 1 26 Feb 00:38:25 00:42:43 43° 261° (W) 00:47:02 437.505/2401.250
POLYITAN 1 26 Feb 00:38:37 00:42:27 31° 97° (E) 00:46:16 437.675
QB50P2 26 Feb 00:41:30 00:45:28 36° 98° (E) 00:49:24 145.880/145.840
NO-84 26 Feb 00:45:51 00:49:46 43° 37° (NE) 00:53:55 435.350 FM
DX 1 26 Feb 00:53:20 00:57:21 38° 71° (ENE) 01:01:22 434.975-435.025
YUBILEINY 26 Feb 00:59:58 01:05:19 18° 282° (WNW) 01:10:40 435.215
UNISAT 6 26 Feb 01:02:17 01:04:57 15° 297° (WNW) 01:07:35 437.425
TIGRISAT 26 Feb 01:02:21 01:05:11 16° 296° (WNW) 01:08:01 435.000
VELOX 1 26 Feb 01:02:22 01:06:44 72° 258° (WSW) 01:11:07 145.980
UKube-1 26 Feb 01:04:55 01:08:51 37° 71° (ENE) 01:12:49 .
BUGSAT 1 26 Feb 01:06:35 01:09:31 18° 93° (E) 01:12:27 437.445
SPROUT 26 Feb 01:08:18 01:12:33 78° 259° (W) 01:16:50 437.525
O/OREOS (USA 219) 26 Feb 01:10:22 01:13:44 20° 303° (WNW) 01:17:07 437.305
50 SAT 26 Feb 01:23:51 01:27:15 49° 260° (W) 01:30:40 437.505
PCSat 26 Feb 01:41:23 01:46:05 29° 50° (NE) 01:50:45 145.827
DUCHIFAT 1 26 Feb 01:45:13 01:49:23 54° 287° (WNW) 01:53:32 145.980
EO-79 26 Feb 01:56:39 02:00:31 34° 289° (WNW) 02:04:23 145.935-145.965
AIST 2D 26 Feb 01:58:05 02:00:01 14° 293° (WNW) 02:01:57 435.315
FO-29 26 Feb 02:10:10 02:15:10 19° 304° (NW) 02:19:57 435.910
NANOSAT C BR1 26 Feb 02:13:45 02:17:13 24° 292° (WNW) 02:20:40 145.865
POLYITAN 1 26 Feb 02:14:42 02:18:03 22° 293° (WNW) 02:21:23 437.675
QB50P2 26 Feb 02:17:54 02:20:59 20° 293° (WNW) 02:24:04 145.880/145.840
NO-84 26 Feb 02:23:45 02:27:23 28° 232° (SW) 02:31:09 435.350 FM
DX 1 26 Feb 02:30:44 02:33:40 18° 266° (W) 02:36:36 434.975-435.025
Oscar 19 26 Feb 02:36:54 02:41:51 47° 100° (E) 02:46:46 437.125/150
RS-15 26 Feb 02:37:29 02:49:26 50° 46° (NE) 03:00:53 29.354- 29.394
BUGSAT 1 26 Feb 02:41:04 02:44:59 37° 289° (WNW) 02:48:54 437.445
UKube-1 26 Feb 02:42:00 02:45:00 18° 266° (W) 02:48:00 .
ITUPSAT 1 26 Feb 02:51:29 02:55:52 36° 70° (ENE) 03:00:17 437.325
BEESAT 26 Feb 02:57:40 03:02:10 43° 71° (ENE) 03:06:42 436.000
MOZHAYETS 4 26 Feb 03:16:02 03:19:39 23° 67° (ENE) 03:23:18
PCSat 26 Feb 03:24:30 03:29:36 42° 248° (WSW) 03:34:40 145.827
Gurwin Techsat 1B 26 Feb 03:24:41 03:30:02 75° 103° (ESE) 03:35:21 435.225
KKS-1 26 Feb 03:46:04 03:47:48 12° 62° (ENE) 03:49:31 437.445
Oscar 19 26 Feb 04:17:03 04:20:48 21° 296° (WNW) 04:24:34 437.125/150
CUBESAT XI-V 26 Feb 04:17:25 04:20:17 16° 65° (ENE) 04:23:09 437.345
STARS 26 Feb 04:18:56 04:20:36 12° 62° (ENE) 04:22:15 437.465
AO-85 26 Feb 04:29:18 04:32:39 20° 112° (ESE) 04:35:52 145.980
ITUPSAT 1 26 Feb 04:29:58 04:33:46 23° 266° (W) 04:37:35 437.325
BEESAT 26 Feb 04:36:42 04:40:07 19° 267° (W) 04:43:34 436.000
M-CUBED/EXP-1 PRIME 26 Feb 04:38:38 04:38:52 10° 60° (ENE) 04:39:05 437.505
ITAMSAT 1 26 Feb 04:50:32 04:55:48 85° 104° (ESE) 05:01:02 435.822/435.867
MOZHAYETS 4 26 Feb 04:52:22 04:56:36 35° 263° (W) 05:00:52
